Location: *
(37.5724°S, 58.0067°E)
Time: 01:06:45
(UTC+00:00)

Cosmos 1980 - Pass Details

Date: 02 February 2021
Orbit: 840 x 846 km, 71.0° (Epoch: 06 March)

Event Time Altitude Azimuth Distance (km) Brightness Sun altitude
Rises 20:55:26 0° 204° (SSW) 3,439 7.6 -35.3°
Reaches altitude 10° 20:57:55 10° 204° (SSW) 2,496 6.7 -35.2°
Enters shadow 21:01:05 35° 207° (SSW) 1,365 5.0 -35.1°
